Location: Carrer del Canonge
(41.4901°N, 2.2931°E)
Time: 00:54:30
(UTC+00:00)

Cosmos 372 Rocket - Visible Passes

Search period start: 24 January 2021 00:00
Search period end: 03 February 2021 00:00
Orbit: 737 x 769 km, 74.1° (Epoch: 23 January)

Date Brightness Start Highest point End Pass type
(mag) Time Alt. Az. Time Alt. Az. Time Alt. Az.
24 Jan 4.5 05:00:09 17° N 05:04:12 59° ENE 05:09:21 10° SSE visible
24 Jan 5.4 17:53:55 10° SE 17:57:14 17° E 17:58:34 16° ENE visible
24 Jan 4.5 19:33:21 10° SW 19:38:25 56° WNW 19:38:36 56° WNW visible
25 Jan 5.6 04:20:09 23° NNE 04:22:30 32° ENE 04:27:10 10° SE visible
25 Jan 4.7 06:00:10 13° NW 06:04:10 31° W 06:08:42 10° SSW visible
25 Jan 3.8 18:51:42 10° SSW 18:56:52 78° ESE 18:59:05 36° NNE visible
25 Jan 6.6 20:36:21 10° W 20:39:07 15° NW 20:39:07 15° NW visible
26 Jan 6.3 03:40:17 19° NE 03:40:38 19° NE 03:44:17 10° E visible
26 Jan 4.0 05:20:18 30° NW 05:22:48 60° WSW 05:27:55 10° S visible
26 Jan 4.4 18:10:38 10° S 18:15:28 41° ESE 18:19:29 15° NE visible
26 Jan 5.9 19:53:03 10° WSW 19:57:20 25° WNW 19:59:31 20° NNW visible
27 Jan 4.1 04:40:33 62° NNE 04:41:19 74° ENE 04:46:31 10° SSE visible
27 Jan 5.7 06:20:34 11° WNW 06:22:19 13° W 06:24:38 10° WSW visible
27 Jan 5.2 17:30:18 10° SE 17:34:11 22° E 17:38:08 10° NE visible
27 Jan 5.0 19:10:36 10° SW 19:15:35 45° WNW 19:19:48 14° N visible
28 Jan 5.4 04:00:55 34° E 04:00:55 34° E 04:04:33 10° SE visible
28 Jan 4.9 05:40:57 25° W 05:41:09 25° W 05:45:20 10° SSW visible
28 Jan 4.0 18:28:46 10° SSW 18:33:58 84° WNW 18:39:14 10° NNE visible
28 Jan 6.8 20:14:30 10° WNW 20:16:33 12° NW 20:18:37 10° NNW visible
29 Jan 6.8 03:21:23 12° ESE 03:21:23 12° ESE 03:21:57 10° ESE visible
29 Jan 4.7 05:01:26 36° SSW 05:01:26 36° SSW 05:04:49 10° S visible
29 Jan 4.2 17:47:29 10° S 17:52:30 52° ESE 17:57:35 10° NNE visible
29 Jan 6.3 19:30:38 10° WSW 19:34:33 21° WNW 19:38:31 10° N visible
30 Jan 5.8 04:21:57 21° SSE 04:21:57 21° SSE 04:23:37 10° SSE visible
30 Jan 5.4 18:47:56 10° SW 18:52:43 36° WNW 18:57:35 10° N visible
31 Jan 4.4 18:05:53 10° SSW 18:11:04 67° WNW 18:16:19 10° NNE visible
01 Feb 6.6 19:08:21 10° W 19:11:48 17° NW 19:15:15 10° NNW visible
02 Feb 5.8 18:25:21 10° WSW 18:29:54 30° WNW 18:34:31 10° N visible
